Location: Cossonay
(46.5833°N, 6.4167°E)
Time: 23:32:03
(UTC+00:00)

Cosmos 773 Rocket - Pass Details

Date: 07 June 2020
Orbit: 745 x 777 km, 74.1° (Epoch: 05 July)

Event Time Altitude Azimuth Distance (km) Brightness Sun altitude
Exits shadow 02:11:02 11° 184° (S) 2,204 5.9 -12.0°
Maximum altitude 02:15:54 59° 107° (ESE) 888 4.4 -11.5°
Drops below altitude 10° 02:21:06 10° 29° (NNE) 2,333 8.0 -10.9°
Sets 02:23:32 0° 25° (NNE) 3,267 9.0 -10.7°
